Sarasota, FL

5:48 PM EDT on August 25, 2016 (GMT -0400)
Kensington Park | | Change Station

Elev 36 ft 27.35 °N, 82.50 °W | Updated 15 seconds ago

Thunderstorm
Thunderstorm
81.9 °F
Feels Like 92 °F
N
2.5
Wind Variable Wind from SE
Gusts 2.5 mph

Today
High -- | Low -- °F
--% Chance of Precip.
Yesterday
High -- | Low -- °F
Precip. -- in
Pressure 29.92 in
Visibility 10.0 miles
Clouds Few 5000 ft
Mostly Cloudy 7000 ft
Overcast 9500 ft
Heat Index 92 °F
Dew Point 80 °F
Humidity 93%
Rainfall 0.03 in
Snow Depth Not available.
7:06 AM 7:57 PM
Last Quarter, 41% visible
SPECI KSRQ 252138Z 09012G22KT 10SM TS FEW050 BKN070 OVC095 33/22 A2992 RMK AO2 LTG DSNT SW TSB32 T03280222
Pressure 29.92 in
Visibility 10.0 miles
Clouds Few 5000 ft
Mostly Cloudy 7000 ft
Overcast 9500 ft
Heat Index 92 °F
Dew Point 80 °F
Humidity 93%
Rainfall 0.03 in
Snow Depth Not available.
7:06 AM 7:57 PM
Last Quarter, 41% visible
SPECI KSRQ 252138Z 09012G22KT 10SM TS FEW050 BKN070 OVC095 33/22 A2992 RMK AO2 LTG DSNT SW TSB32 T03280222
A tropical disturbance pushing toward the Bahamas, is expected to develop into a tropical depression or storm, and will likely target Florida and the Gulf Coast this weekend into next week.

Right now, the disturbance remains a broad area of low pressure pushing through the Dominican Republic and Haiti, headed toward the southeast Bahamas. Rainfall totals over 3 inches (with locally higher amounts) are expected in HispaƱiola, particularly over elevated terrain.

10-Day Weather Forecast

Almanac

Astronomy

Aug. 25, 2016 Rise Set
Actual Time
Civil Twilight
Nautical Twilight
Astronomical Twilight
Moon
Length of Visible Light
Length of Day
Tomorrow will be .
, % of the Moon is Illuminated

Today's Extremes

State Highs State Lows

Community

WunderPhotos

Upload Photos

1,934,947 photos uploaded!

WunderBlog® & News

Nearby

Air Quality

  Air Quality AQ Index Pollutant
Not available.

Snow Depth

Station Depth Elevation

Earthquake Activity

City Distance Mag. Time & Date
Minimum magnitude displayed is 2.5.

Coastal Water Temperatures

Place Temperature

Stations

Nearby Weather Stations

Station Location Temp. Windchill Dew Point Humidity Wind Precip. Elev Updated Type
                   

Watches & Warnings

There are currently no watches in effect.